DO1AA Weather Reports


time (UTC)temp
F
wind
direction
speed
knots
gust
knots
rain 1hr
in
rain 24hr
in
rain mn
in
humidity
%
barometer
mb
20260507105006 46 301 1.7 3.5 0.02 0.08 0.06 98 1001.4
20260507104005 46 7 0.9 3.5 0.01 0.07 0.05 99 1001.3
20260507103004 46 349 1.7 5.2 0.02 0.07 0.05 98 1001.2
20260507100004 46 324 1.7 3.5 0.01 0.06 0.04 98 1001.1
20260507095004 46 324 1.7 3.5 0.02 0.06 0.04 98 1001.0
20260507094003 46 309 0.9 3.5 0.02 0.06 0.04 98 1001.0
20260507093003 46 0 0.0 3.5 0.01 0.05 0.02 98 1000.6
20260507092003 46 322 0.9 3.5 0.01 0.05 0.02 97 1000.5
20260507091003 46 24 1.7 3.5 0.01 0.05 0.02 97 1000.5
20260507090004 46 7 1.7 5.2 0.01 0.05 0.02 96 1000.4
20260507085006 46 0 0.0 5.2 0.00 0.04 0.01 96 1000.3
20260507084004 46 25 1.7 3.5 0.00 0.04 0.01 96 1000.1
20260507083004 46 14 0.9 3.5 0.00 0.04 0.01 95 1000.0
20260507082003 46 34 1.7 3.5 0.00 0.04 0.01 96 999.7
20260507081003 46 48 1.7 3.5 0.00 0.04 0.01 96 999.7
20260507080004 45 31 1.7 7.0 0.00 0.04 0.01 97 999.6
20260507074005 45 5 1.7 3.5 0.00 0.05 0.01 98 999.5
20260507073004 45 18 1.7 3.5 0.00 0.05 0.01 98 999.4
20260507072003 45 325 1.7 3.5 0.00 0.05 0.01 97 999.2
20260507071002 45 325 1.7 3.5 0.00 0.05 0.01 97 999.2
20260507070008 45 0 0.0 6.1 0.00 0.05 0.01 97 999.2
20260507065004 45 8 1.7 5.2 0.00 0.05 0.01 97 998.9
20260507064003 45 12 1.7 7.0 0.00 0.06 0.01 97 998.9
20260507063003 45 331 4.3 7.0 0.00 0.07 0.01 98 998.7
20260507062003 45 21 0.9 3.5 0.00 0.09 0.01 98 998.4
20260507061003 45 21 0.9 7.0 0.00 0.11 0.01 98 998.4
20260507060003 45 21 0.9 6.1 0.00 0.11 0.01 99 998.3
20260507055003 45 46 1.7 5.2 0.00 0.11 0.01 99 998.2
20260507054003 45 12 1.7 3.5 0.01 0.11 0.01 99 997.8
20260507053004 45 358 1.7 6.1 0.01 0.11 0.01 99 998.0
20260507052003 44 352 1.7 5.2 0.01 0.11 0.01 99 998.1
20260507051003 44 56 1.7 5.2 0.01 0.12 0.01 99 997.7
20260507050005 44 52 3.5 5.2 0.01 0.12 0.01 99 997.7
20260507045002 44 18 1.7 5.2 0.01 0.12 0.01 99 997.3
20260507044003 44 5 1.7 6.1 0.00 0.12 0.00 99 997.3
20260507043004 45 36 0.9 6.1 0.00 0.14 0.00 99 997.2
20260507042002 45 34 1.7 6.1 0.00 0.15 0.00 98 997.3
20260507041004 44 26 3.5 7.0 0.00 0.17 0.00 98 997.2
20260507040004 45 30 2.6 9.6 0.00 0.17 0.00 98 997.0
20260507035005 45 359 3.5 6.1 0.00 0.18 0.00 99 996.9
20260507034003 45 355 1.7 7.8 0.00 0.18 0.00 99 997.0
20260507033004 46 23 1.7 6.1 0.00 0.21 0.00 98 996.8
20260507032003 46 46 3.5 7.8 0.00 0.22 0.00 98 996.9
20260507031004 47 46 1.7 6.1 0.00 0.24 0.00 97 996.7
20260507030004 47 24 1.7 7.0 0.00 0.24 0.00 97 996.7
20260507025003 48 27 3.5 6.1 0.00 0.24 0.00 95 996.7
20260507023006 49 30 1.7 3.5 0.00 0.25 0.00 92 996.7
20260507022006 49 355 2.6 3.5 0.00 0.26 0.00 92 996.7
20260507021008 50 22 0.9 3.5 0.00 0.26 0.00 92 996.4
20260507020004 50 34 1.7 3.5 0.00 0.27 0.00 92 996.4
20260507015004 50 57 1.7 3.5 0.00 0.30 0.00 92 996.3
20260507014003 50 38 1.7 1.7 0.00 0.31 0.00 92 996.2
20260507013004 50 0 0.0 3.5 0.00 0.32 0.00 91 996.2
20260507012005 50 26 1.7 3.5 0.00 0.34 0.00 91 996.1
20260507010004 50 47 1.7 5.2 0.00 0.41 0.00 91 996.2
20260507004003 50 48 0.9 3.5 0.00 0.46 0.00 92 996.0
20260507003006 50 38 1.7 3.5 0.00 0.50 0.00 92 995.8
20260507001003 50 26 0.9 1.7 0.00 0.54 0.00 92 995.5
20260507000004 50 36 0.9 3.5 0.00 0.57 0.00 92 995.9
20260506235003 50 33 1.7 3.5 0.00 0.58 0.00 92 995.7
20260506232002 50 63 0.9 6.1 0.00 0.63 0.00 91 995.5
20260506231004 51 39 0.9 3.5 0.00 0.65 0.00 91 995.5
20260506230004 51 42 1.7 6.1 0.00 0.67 0.00 91 995.4
20260506225003 51 29 3.5 7.0 0.00 0.69 0.00 90 995.3
20260506224010 51 42 1.7 6.1 0.00 0.70 0.00 90 995.4
20260506221008 51 26 0.9 7.0 0.00 0.73 0.00 90 995.5
20260506214013 52 20 0.9 6.1 0.00 0.76 0.73 91 995.3
20260506205003 53 0 0.0 3.5 0.00 0.76 0.73 91 995.2
20260506204003 53 39 1.7 5.2 0.00 0.76 0.73 90 995.1
20260506202005 53 51 0.9 7.0 0.00 0.76 0.73 90 995.0
20260506200004 53 51 3.5 6.1 0.00 0.76 0.73 89 994.8
20260506195004 53 48 2.6 6.1 0.00 0.76 0.73 90 994.5
20260506194006 54 13 1.7 6.1 0.00 0.76 0.73 91 994.5
20260506193007 54 41 1.7 7.0 0.00 0.76 0.73 92 994.6
20260506192003 54 33 1.7 3.5 0.00 0.76 0.73 92 994.5
20260506191003 54 37 1.7 5.2 0.00 0.76 0.73 92 994.5
20260506190005 54 46 2.6 5.2 0.00 0.76 0.73 92 994.5
20260506184003 55 40 1.7 3.5 0.00 0.76 0.73 92 994.1
20260506181003 56 16 1.7 5.2 0.00 0.76 0.73 90 993.8
20260506180004 56 0 0.0 3.5 0.00 0.76 0.73 90 994.0
20260506175004 56 3 1.7 5.2 0.00 0.76 0.73 89 993.7
20260506174003 56 0 0.0 6.1 0.00 0.76 0.73 89 993.6
20260506173004 56 64 0.9 3.5 0.00 0.76 0.73 89 993.5
20260506172003 56 337 1.7 5.2 0.00 0.76 0.73 88 993.6
20260506171003 56 27 1.7 5.2 0.00 0.76 0.73 88 993.7
20260506170005 56 22 1.7 6.1 0.00 0.76 0.73 88 993.6
20260506165003 56 48 3.5 7.0 0.00 0.76 0.73 87 993.4
20260506164004 57 18 1.7 6.1 0.00 0.76 0.73 86 993.4
20260506163004 57 40 0.9 5.2 0.00 0.76 0.73 87 993.3
20260506162003 57 342 2.6 5.2 0.00 0.76 0.73 85 993.4
20260506161003 58 29 1.7 6.1 0.00 0.76 0.73 84 993.4
20260506160004 58 32 2.6 9.6 0.00 0.76 0.73 84 993.3
20260506155003 59 18 1.7 7.0 0.00 0.76 0.73 83 993.2
20260506154003 60 30 0.9 7.8 0.00 0.76 0.73 83 993.4
20260506153004 59 57 0.9 7.0 0.00 0.76 0.73 85 993.4
20260506152003 59 0 0.0 6.1 0.00 0.76 0.73 84 993.5
20260506151003 59 9 3.5 7.0 0.00 0.76 0.73 83 993.5
20260506150004 60 41 2.6 7.0 0.00 0.76 0.73 84 993.4
20260506144004 58 4 2.6 7.0 0.00 0.76 0.73 84 993.6
20260506143005 60 5 1.7 9.6 0.00 0.76 0.73 82 993.5
20260506142003 58 6 2.6 7.8 0.00 0.76 0.73 86 993.6
20260506141004 59 316 2.6 7.0 0.00 0.76 0.73 84 993.4
20260506140003 59 343 1.7 6.1 0.00 0.76 0.73 85 993.5
20260506134003 59 11 1.7 3.5 0.00 0.76 0.73 85 993.5
20260506133004 59 33 2.6 6.1 0.00 0.76 0.73 87 993.6
20260506132002 58 35 1.7 6.1 0.00 0.76 0.73 89 993.6
20260506131003 58 31 1.7 5.2 0.00 0.76 0.73 92 993.4
20260506130004 57 56 1.7 3.5 0.00 0.76 0.73 92 993.8
20260506125004 58 348 0.9 3.5 0.01 0.76 0.73 91 993.7
20260506123004 57 328 2.6 3.5 0.02 0.76 0.73 93 993.5
20260506122004 58 322 0.9 5.2 0.02 0.76 0.73 97 993.5
20260506121003 57 332 1.7 3.5 0.02 0.76 0.73 97 993.6
20260506120005 57 319 0.9 3.5 0.02 0.76 0.73 97 993.6
20260506115003 56 0 0.0 1.7 0.01 0.74 0.72 96 993.7
20260506114003 57 0 0.0 1.7 0.00 0.73 0.71 95 993.6
20260506113004 56 50 0.9 3.5 0.00 0.73 0.71 95 993.9
20260506112003 57 56 2.6 3.5 0.00 0.73 0.71 93 993.8
20260506111004 58 70 1.7 1.7 0.00 0.73 0.71 89 993.7
20260506110005 58 9 0.9 3.5 0.00 0.73 0.71 88 993.5